TimeMST,TemperatureF,Dew PointF,Humidity,Sea Level PressureIn,VisibilityMPH,Wind Direction,Wind SpeedMPH,Gust SpeedMPH,PrecipitationIn,Events,Conditions,WindDirDegrees,DateUTC
12:53 AM,42.1,23.0,47,29.85,10.0,SW,11.5,-,N/A,,Clear,220,2012-12-02 07:53:00
1:53 AM,42.1,25.0,51,29.84,10.0,SW,17.3,21.9,N/A,,Clear,220,2012-12-02 08:53:00
2:53 AM,42.1,25.0,51,29.83,10.0,SW,18.4,-,N/A,,Clear,220,2012-12-02 09:53:00
3:53 AM,42.1,26.1,53,29.79,10.0,SSW,21.9,-,N/A,,Clear,200,2012-12-02 10:53:00
4:53 AM,43.0,26.1,51,29.78,10.0,SSW,25.3,32.2,N/A,,Clear,210,2012-12-02 11:53:00
5:53 AM,44.1,25.0,47,29.78,10.0,SSW,25.3,32.2,N/A,,Clear,210,2012-12-02 12:53:00
6:53 AM,45.0,26.1,48,29.77,10.0,SSW,25.3,35.7,N/A,,Clear,210,2012-12-02 13:53:00
7:53 AM,46.9,27.0,46,29.75,10.0,SSW,28.8,40.3,N/A,,Clear,210,2012-12-02 14:53:00
8:53 AM,48.9,28.0,44,29.68,10.0,SW,35.7,49.5,N/A,,Clear,220,2012-12-02 15:53:00
9:53 AM,50.0,27.0,41,29.63,10.0,SW,35.7,49.5,N/A,,Clear,220,2012-12-02 16:53:00
10:53 AM,54.0,26.1,34,29.63,10.0,SW,34.5,51.8,N/A,,Clear,220,2012-12-02 17:53:00
11:53 AM,54.0,26.1,34,29.57,9.0,SW,46.0,59.8,N/A,,Clear,220,2012-12-02 18:53:00
12:53 PM,55.9,26.1,32,29.55,7.0,SSW,38.0,54.1,N/A,,Scattered Clouds,210,2012-12-02 19:53:00
1:53 PM,55.9,25.0,30,29.51,10.0,SW,38.0,52.9,N/A,,Scattered Clouds,220,2012-12-02 20:53:00
2:53 PM,55.0,24.1,30,29.52,10.0,SW,29.9,44.9,N/A,,Clear,220,2012-12-02 21:53:00
3:53 PM,54.0,24.1,31,29.50,10.0,SW,34.5,51.8,N/A,,Clear,220,2012-12-02 22:53:00
4:53 PM,53.1,24.1,32,29.51,10.0,SW,32.2,46.0,N/A,,Clear,220,2012-12-02 23:53:00
5:53 PM,52.0,23.0,32,29.47,10.0,SW,34.5,49.5,N/A,,Clear,220,2012-12-03 00:53:00
6:53 PM,52.0,24.1,34,29.50,10.0,SW,40.3,52.9,N/A,,Clear,230,2012-12-03 01:53:00
7:53 PM,51.1,25.0,36,29.46,10.0,SW,40.3,56.4,N/A,,Clear,230,2012-12-03 02:53:00
8:53 PM,51.1,26.1,38,29.49,10.0,SSW,34.5,47.2,N/A,,Scattered Clouds,210,2012-12-03 03:53:00
9:53 PM,51.1,27.0,39,29.52,10.0,SSW,29.9,35.7,N/A,,Partly Cloudy,210,2012-12-03 04:53:00
10:53 PM,50.0,28.9,44,29.55,10.0,SSW,27.6,40.3,N/A,,Overcast,210,2012-12-03 05:53:00
11:53 PM,48.0,32.0,54,29.64,10.0,WSW,33.4,47.2,N/A,,Overcast,250,2012-12-03 06:53:00